| time (UTC) | temp F | wind direction | speed knots | gust knots | rain 1hr in | rain 24hr in | rain mn in | humidity % | barometer mb |
| 20260902200159 | 65 | 253 | 0.0 | 0.0 | 0.00 | 0.00 | 0.00 | 69 | 1022.6 |
| 20260902194658 | 65 | 253 | 0.0 | 0.0 | 0.00 | 0.00 | 0.00 | 69 | 1022.4 |
| 20260902193159 | 66 | 253 | 0.0 | 0.0 | 0.00 | 0.00 | 0.00 | 66 | 1022.3 |
| 20260902191657 | 68 | 253 | 0.0 | 0.0 | 0.00 | 0.00 | 0.00 | 62 | 1022.2 |
| 20260902190155 | 68 | 253 | 0.0 | 0.9 | 0.00 | 0.00 | 0.00 | 61 | 1022.1 |
| 20260902181655 | 71 | 254 | 0.0 | 2.6 | 0.00 | 0.00 | 0.00 | 58 | 1022.0 |
| 20260902180200 | 70 | 284 | 0.0 | 0.0 | 0.00 | 0.00 | 0.00 | 60 | 1021.6 |
| 20260902174655 | 71 | 284 | 0.0 | 0.9 | 0.00 | 0.00 | 0.00 | 59 | 1021.4 |
| 20260902173200 | 73 | 284 | 0.0 | 2.6 | 0.00 | 0.00 | 0.00 | 54 | 1021.4 |
| 20260902171657 | 74 | 289 | 0.0 | 1.7 | 0.00 | 0.00 | 0.00 | 53 | 1021.3 |
| 20260902164653 | 75 | 43 | 0.9 | 6.1 | 0.00 | 0.00 | 0.00 | 51 | 1021.3 |
| 20260902163154 | 75 | 207 | 0.9 | 6.1 | 0.00 | 0.00 | 0.00 | 51 | 1021.2 |
| 20260902161653 | 76 | 207 | 2.6 | 7.0 | 0.00 | 0.00 | 0.00 | 49 | 1021.2 |
| 20260902160153 | 77 | 282 | 0.9 | 3.5 | 0.00 | 0.00 | 0.00 | 48 | 1021.1 |
| 20260902154656 | 77 | 223 | 1.7 | 7.0 | 0.00 | 0.00 | 0.00 | 48 | 1021.0 |
| 20260902150152 | 78 | 326 | 2.6 | 7.8 | 0.00 | 0.00 | 0.00 | 44 | 1021.4 |
| 20260902143154 | 79 | 257 | 2.6 | 8.7 | 0.00 | 0.00 | 0.00 | 43 | 1021.4 |
| 20260902141652 | 80 | 167 | 0.9 | 6.1 | 0.00 | 0.00 | 0.00 | 43 | 1021.6 |
| 20260902140155 | 80 | 134 | 2.6 | 10.4 | 0.00 | 0.00 | 0.00 | 42 | 1021.6 |
| 20260902134759 | 80 | 165 | 3.5 | 10.4 | 0.00 | 0.00 | 0.00 | 44 | 1021.6 |
| 20260902130155 | 79 | 242 | 1.7 | 7.0 | 0.00 | 0.00 | 0.00 | 44 | 1022.0 |
| 20260902124656 | 79 | 153 | 1.7 | 7.8 | 0.00 | 0.00 | 0.00 | 49 | 1022.0 |
| 20260902123154 | 79 | 310 | 1.7 | 6.1 | 0.00 | 0.00 | 0.00 | 46 | 1022.1 |
| 20260902121656 | 79 | 282 | 1.7 | 4.3 | 0.00 | 0.00 | 0.00 | 47 | 1022.0 |
| 20260902120155 | 77 | 16 | 1.7 | 6.1 | 0.00 | 0.00 | 0.00 | 49 | 1022.1 |
| 20260902114656 | 76 | 240 | 1.7 | 5.2 | 0.00 | 0.00 | 0.00 | 52 | 1022.3 |
| 20260902113149 | 75 | 259 | 0.9 | 3.5 | 0.00 | 0.00 | 0.00 | 54 | 1022.6 |
| 20260902111648 | 76 | 299 | 0.9 | 3.5 | 0.00 | 0.00 | 0.00 | 55 | 1022.5 |
| 20260902110148 | 74 | 33 | 0.9 | 3.5 | 0.00 | 0.00 | 0.00 | 55 | 1022.6 |
| 20260902104649 | 75 | 221 | 0.9 | 3.5 | 0.00 | 0.00 | 0.00 | 56 | 1022.7 |
| 20260902101653 | 73 | 276 | 0.9 | 2.6 | 0.00 | 0.00 | 0.00 | 58 | 1022.8 |
| 20260902094649 | 74 | 331 | 0.0 | 1.7 | 0.00 | 0.00 | 0.00 | 57 | 1023.1 |
| 20260902093149 | 73 | 241 | 0.9 | 2.6 | 0.00 | 0.00 | 0.00 | 57 | 1023.2 |
| 20260902091649 | 74 | 250 | 0.9 | 2.6 | 0.00 | 0.00 | 0.00 | 59 | 1023.2 |
| 20260902090149 | 74 | 215 | 0.9 | 2.6 | 0.00 | 0.00 | 0.00 | 57 | 1023.1 |
| 20260902084650 | 71 | 49 | 0.9 | 2.6 | 0.00 | 0.00 | 0.00 | 62 | 1023.3 |
| 20260902083148 | 71 | 258 | 0.9 | 2.6 | 0.00 | 0.00 | 0.00 | 64 | 1023.3 |
| 20260902081650 | 68 | 63 | 0.0 | 0.0 | 0.00 | 0.00 | 0.00 | 67 | 1023.3 |
| 20260902080149 | 69 | 65 | 0.0 | 0.0 | 0.00 | 0.00 | 0.00 | 66 | 1023.3 |
| 20260902074650 | 68 | 195 | 0.0 | 0.0 | 0.00 | 0.00 | 0.00 | 70 | 1023.4 |
| 20260902073147 | 67 | 195 | 0.0 | 0.0 | 0.00 | 0.00 | 0.00 | 73 | 1023.3 |
| 20260902071645 | 65 | 195 | 0.9 | 2.6 | 0.00 | 0.00 | 0.00 | 77 | 1023.3 |
| 20260902070144 | 63 | 195 | 0.0 | 1.7 | 0.00 | 0.00 | 0.00 | 82 | 1023.3 |
| 20260902064645 | 59 | 195 | 0.0 | 0.0 | 0.00 | 0.00 | 0.00 | 88 | 1023.2 |
| 20260902063147 | 57 | 195 | 0.0 | 0.0 | 0.00 | 0.00 | 0.00 | 90 | 1023.2 |
| 20260902061649 | 56 | 194 | 0.0 | 0.0 | 0.00 | 0.00 | 0.00 | 92 | 1023.2 |
| 20260902060147 | 54 | 194 | 0.0 | 0.0 | 0.00 | 0.00 | 0.00 | 94 | 1023.1 |
| 20260902054646 | 53 | 195 | 0.0 | 0.0 | 0.00 | 0.00 | 0.00 | 94 | 1023.0 |
| 20260902051641 | 52 | 194 | 0.0 | 0.0 | 0.00 | 0.00 | 0.00 | 95 | 1022.8 |
| 20260902050140 | 51 | 194 | 0.0 | 0.0 | 0.00 | 0.00 | 0.00 | 95 | 1022.9 |
| 20260902043140 | 51 | 194 | 0.0 | 0.0 | 0.00 | 0.00 | 0.00 | 95 | 1022.7 |
| 20260902033142 | 51 | 194 | 0.0 | 0.0 | 0.00 | 0.00 | 0.00 | 94 | 1022.6 |
| 20260902031638 | 52 | 194 | 0.0 | 0.0 | 0.00 | 0.00 | 0.00 | 93 | 1022.9 |
| 20260902030138 | 53 | 194 | 0.0 | 0.0 | 0.00 | 0.00 | 0.00 | 93 | 1022.6 |
| 20260902024638 | 52 | 194 | 0.0 | 0.0 | 0.00 | 0.00 | 0.00 | 94 | 1022.9 |
| 20260902023139 | 52 | 194 | 0.0 | 0.0 | 0.00 | 0.00 | 0.00 | 93 | 1023.1 |
| 20260902021639 | 52 | 194 | 0.0 | 0.0 | 0.00 | 0.00 | 0.00 | 93 | 1023.1 |
| 20260902020138 | 53 | 194 | 0.0 | 0.0 | 0.00 | 0.00 | 0.00 | 93 | 1023.2 |
| 20260902014640 | 53 | 194 | 0.0 | 0.0 | 0.00 | 0.00 | 0.00 | 93 | 1023.1 |
| 20260902013138 | 53 | 194 | 0.0 | 0.0 | 0.00 | 0.00 | 0.00 | 93 | 1023.1 |
| 20260902011639 | 53 | 194 | 0.0 | 0.0 | 0.00 | 0.00 | 0.00 | 91 | 1023.2 |
| 20260902010142 | 54 | 194 | 0.0 | 0.0 | 0.00 | 0.00 | 0.00 | 91 | 1023.1 |
| 20260902004640 | 55 | 194 | 0.0 | 0.0 | 0.00 | 0.00 | 0.00 | 91 | 1023.2 |
| 20260902003142 | 55 | 194 | 0.0 | 0.0 | 0.00 | 0.00 | 0.00 | 91 | 1023.3 |
| 20260902001640 | 55 | 194 | 0.0 | 0.9 | 0.00 | 0.00 | 0.00 | 92 | 1023.4 |
| 20260902000142 | 55 | 133 | 0.0 | 0.0 | 0.00 | 0.00 | 0.00 | 92 | 1023.3 |
| 20260901234640 | 55 | 133 | 0.0 | 0.0 | 0.00 | 0.00 | 0.00 | 92 | 1023.2 |
| 20260901233135 | 55 | 133 | 0.0 | 0.0 | 0.00 | 0.00 | 0.00 | 92 | 1023.3 |
| 20260901230136 | 56 | 133 | 0.0 | 0.0 | 0.00 | 0.00 | 0.00 | 91 | 1023.4 |
| 20260901224634 | 56 | 133 | 0.0 | 0.0 | 0.00 | 0.00 | 0.00 | 90 | 1023.5 |
| 20260901223135 | 56 | 133 | 0.0 | 0.0 | 0.00 | 0.00 | 0.00 | 90 | 1023.4 |
| 20260901221634 | 57 | 133 | 0.0 | 0.0 | 0.00 | 0.00 | 0.00 | 88 | 1023.5 |
| 20260901220141 | 58 | 133 | 0.0 | 0.9 | 0.00 | 0.00 | 0.00 | 89 | 1023.5 |
| 20260901214632 | 57 | 133 | 0.0 | 0.0 | 0.00 | 0.00 | 0.00 | 89 | 1023.6 |
| 20260901213135 | 58 | 133 | 0.0 | 0.0 | 0.00 | 0.00 | 0.00 | 88 | 1023.5 |
| 20260901211630 | 58 | 133 | 0.0 | 0.0 | 0.00 | 0.00 | 0.00 | 87 | 1023.6 |
| 20260901210130 | 59 | 133 | 0.0 | 0.9 | 0.00 | 0.00 | 0.00 | 86 | 1023.4 |
| 20260901204630 | 58 | 133 | 0.0 | 0.0 | 0.00 | 0.00 | 0.00 | 86 | 1023.4 |
| 20260901203131 | 59 | 133 | 0.0 | 0.0 | 0.00 | 0.00 | 0.00 | 85 | 1023.3 |
| 20260901201631 | 60 | 133 | 0.0 | 0.0 | 0.00 | 0.00 | 0.00 | 83 | 1023.2 |